カタログに戻る

DIRECTV 1R

運用中通信GEO
NORAD 25937·PAYLOAD·🇺🇸 United States

打ち上げ Oct 10, 1999 から Sea Launch Platform

Loading…

TLE

最新Source: Space-Track

元期: Sep 14, 2026, 06:47 UTC

1 25937U 99056A   26257.28305101 -.00000245  00000-0  00000-0 0  9999
2 25937  10.8523  47.6555 0004184 209.3283 163.3010  0.98962333 98108

AllMySatでDIRECTV 1Rをリアルタイム追跡

Download on the App Store